Location: Unspecified
(51.6250°N, 0.8230°E)
Time: 16:32:33
(UTC+00:00)

CZ-3 Stage 3 - Visible Passes

Search period start: 14 December 2018 00:00
Search period end: 24 December 2018 00:00
Orbit: 392 x 34800 km, 30.3° (Epoch: 13 December)

Date Brightness Start Highest point End Pass type
(mag) Time Alt. Az. Time Alt. Az. Time Alt. Az.
14 Dec 8.2 09:04:14 10° SSE 15:16:20 53° SE 18:10:35 10° SE visible
15 Dec 9.4 08:25:51 10° ENE 11:59:28 19° E 13:45:50 10° E visible
15 Dec 9.2 16:21:41 10° W 18:27:50 35° W 23:50:05 10° W visible
16 Dec 7.9 12:26:49 10° SW 15:25:44 64° SSW 21:37:57 10° S visible
17 Dec 8.3 08:53:41 10° SSE 15:04:20 52° SE 17:59:58 10° SE visible
18 Dec 9.5 08:18:55 10° ENE 11:48:15 18° E 13:33:19 10° E visible
18 Dec 9.3 16:10:54 10° W 18:16:07 35° W 23:36:55 10° W visible
19 Dec 8.0 12:16:28 10° SW 15:12:11 64° SSW 21:27:15 10° S visible
20 Dec 8.3 08:43:09 10° SSE 14:52:19 52° SE 17:49:20 10° SE visible
21 Dec 9.5 08:12:41 10° ENE 11:37:06 18° E 13:20:39 10° E visible
21 Dec 9.4 16:00:08 10° W 18:04:24 35° W 23:23:43 10° W visible
22 Dec 8.0 12:06:07 10° SW 14:58:29 64° SSW 21:16:31 10° S visible
23 Dec 8.4 08:32:39 10° SSE 14:40:22 51° SE 17:38:42 10° SE visible
